Home   Weather   Formosa   Past weeks

Flag for Argentina Past Weather in Formosa, Formosa, Argentina — Yesterday and Last 2 Weeks

Now
68 °F

Sunny.


Feels Like: 68 °F
Forecast: 51 / 65 °F
Wind: 14 mph from Southwest

Location: Formosa Aerodrome

Current Time: Apr 26, 2017 at 5:01:01 pm

Latest Report: Apr 26, 2017 at 4:00 pm


Visibility: 10 mi

Pressure: 30.01 "Hg

Humidity: 46%

Dew Point: 46 °F

Location of FormosaLocation

Past Weather in Formosa — Graph

°F

Formosa Temperature Yesterday

Maximum temperature yesterday: 77 °F (at 4:00 pm)
Minimum temperature yesterday: 64 °F (at 11:00 pm)
Average temperature yesterday: 72 °F

High & Low Weather Summary for the Past Weeks

 TemperatureHumidityPressure
High91 °F (Apr 15, 2:00 pm)100% (Apr 12, 12:00 am)30.18 "Hg (Apr 12, 12:00 am)
Low57 °F (Apr 13, 7:00 am)43% (Apr 26, 12:00 pm)29.50 "Hg (Apr 25, 4:00 pm)
Average70 °F88%29.93 "Hg
* Reported Apr 11 4:00 pm — Apr 26 4:00 pm, Formosa, Weather by CustomWeather, © 2017

Note: Actual official high and low records may vary slightly from our data, if they occured in-between our weather recording intervals... More about our weather records

Advertising

Formosa Weather History for the Previous 24 Hours

Scroll right to see more
 ConditionsComfort  
Time TempWeatherWind HumidityBarometerVisibility
4:00 pm
Wed, Apr 26
68 °FSunny.14 mph46%30.01 "Hg10 mi
3:00 pm70 °FSunny.16 mph43%30.01 "Hg10 mi
2:00 pm68 °FSunny.17 mph56%30.01 "Hg10 mi
1:00 pm68 °FSunny.16 mph53%30.04 "Hg10 mi
12:00 pm68 °FSunny.22 mph43%30.04 "Hg10 mi
11:00 am64 °FSunny.23 mph56%30.04 "Hg10 mi
10:00 am63 °FPassing clouds.22 mph73%30.01 "HgN/A
9:00 am59 °FPassing clouds.15 mph82%30.04 "HgN/A
8:00 am57 °FScattered clouds.16 mph88%30.01 "HgN/A
7:00 am57 °FPassing clouds.17 mph88%29.95 "HgN/A
6:00 am57 °FClear.13 mph94%29.92 "Hg10 mi
5:00 am59 °FClear.13 mph88%29.89 "Hg10 mi
4:00 am59 °FPassing clouds.15 mph88%29.89 "HgN/A
3:00 am61 °FOvercast.30 mph88%29.86 "HgN/A
2:00 am63 °FPassing clouds.21 mph88%29.83 "HgN/A
1:00 am63 °FClear.7 mph94%29.77 "Hg10 mi
12:00 am63 °FClear.5 mph100%29.74 "Hg10 mi
11:00 pm
Tue, Apr 25
64 °FPassing clouds.9 mph94%29.71 "HgN/A
10:00 pm68 °FMostly cloudy.13 mph88%29.74 "HgN/A
9:00 pm70 °FLow clouds.17 mph100%29.65 "HgN/A
8:00 pm70 °FPassing clouds.6 mph94%29.62 "HgN/A
7:00 pm68 °FThunderstorms. Passing clouds.7 mph100%29.59 "Hg1 mi
6:45 pm77 °FThunderstorms. Passing clouds.9 mph94%29.53 "Hg1 mi
6:00 pm77 °FPartly sunny.6 mph94%29.53 "HgN/A
5:00 pm75 °FBroken clouds.2 mph100%29.50 "HgN/A
Weather by CustomWeather, © 2017

See weather overviewHow to use our weather pages